Weather History for Brisbane Airport M. O, Queensland

Change the Weather History Date:

Friday, December 7, 2012

  Actual Average Record
Temperature  
Mean Temperature 78 °F -  
Max Temperature 82 °F 84 °F - ()
Min Temperature 74 °F 68 °F - ()
Cooling Degree Days 13    
Growing Degree Days 28 (Base 50)    
Moisture  
Dew Point 65 °F    
Average Humidity 64    
Maximum Humidity 74    
Minimum Humidity 43    
Precipitation  
Precipitation 0.00 in 0.18 in - ()
Sea Level Pressure  
Sea Level Pressure 30.12 in    
Wind  
Wind Speed 10 mph ()    
Max Wind Speed 20 mph    
Max Gust Speed -    
Visibility 7.0 miles    
Events Rain    
T = Trace of Precipitation, MM = Missing Value Source: Averaged Metar Reports

Daily Weather History Graph

Daily Weather History Graph

Search for Another Location

Airport:

Trip Planner

Search our weather history database for the weather conditions in past years. The results will help you decide how hot, cold, wet, or windy it might be!

Date:

Astronomy

Dec. 07, 2012 Rise Set
Actual Time 4:44 AM AEST 6:33 PM AEST
Civil Twilight 4:18 AM AEST 6:59 PM AEST
Nautical Twilight 3:46 AM AEST 7:31 PM AEST
Astronomical Twilight 3:13 AM AEST 8:04 PM AEST
Moon No Moon Rise 12:02 PM AEST (12/7)
Length of Visible Light 14h 41m
Length of Day
13h 48m
Last Quarter, 45% of the Moon is Illuminated
Dec 7
Last Quarter
Dec 13
New
Dec 20
First Quarter
Dec 28
Full
Jan 5
Last Quarter

Hourly Weather History & Observations

Time (AEST) Temp. Heat Index Dew Point Humidity Pressure Visibility Wind Dir Wind Speed Gust Speed Precip Events Conditions
12:00 AM 75 °F - 66 °F 67% 30.09 in 19 mi NE 6.9 mph - -   Partly Cloudy
12:00 AM 75.2 °F - 66.2 °F 73% 30.06 in 6.2 mi NE 6.9 mph - N/A   Partly Cloudy
12:30 AM 75.2 °F - 66.2 °F 73% 30.06 in 6.2 mi ENE 5.8 mph - N/A   Partly Cloudy
1:00 AM 75 °F - 66 °F 67% 30.08 in - ENE 5.8 mph - -  
1:00 AM 75.2 °F - 66.2 °F 73% 30.06 in 6.2 mi ENE 5.8 mph - N/A   Scattered Clouds
1:30 AM 75.2 °F - 66.2 °F 73% 30.06 in 6.2 mi ENE 6.9 mph - N/A   Partly Cloudy
2:00 AM 75.2 °F - 66.2 °F 73% 30.06 in 6.2 mi East 5.8 mph - N/A   Partly Cloudy
2:30 AM 75.2 °F - 66.2 °F 73% 30.06 in 6.2 mi ENE 5.8 mph - N/A   Scattered Clouds
3:00 AM 75 °F - 66 °F 66% 30.07 in 19 mi ENE 8.1 mph - -   Partly Cloudy
3:00 AM 75.2 °F - 66.2 °F 73% 30.06 in 6.2 mi ENE 8.1 mph - N/A   Scattered Clouds
3:30 AM 75.2 °F - 66.2 °F 73% 30.06 in 6.2 mi ENE 8.1 mph - N/A   Partly Cloudy
4:00 AM 74 °F - 66 °F 70% 30.09 in - ENE 8.1 mph - -  
4:00 AM 75.2 °F - 66.2 °F 73% 30.06 in 6.2 mi ENE 8.1 mph - N/A   Partly Cloudy
4:30 AM 75.2 °F - 66.2 °F 73% 30.09 in 6.2 mi ENE 6.9 mph - N/A   Partly Cloudy
5:00 AM 75.2 °F - 66.2 °F 73% 30.09 in 6.2 mi ENE 9.2 mph - N/A   Partly Cloudy
5:30 AM 75.2 °F - 66.2 °F 73% 30.12 in 6.2 mi NE 9.2 mph - N/A   Partly Cloudy
6:00 AM 76 °F - 67 °F 65% 30.13 in 16 mi NE 10.4 mph - -   Smoke
6:00 AM 77.0 °F - 66.2 °F 69% 30.12 in 6.2 mi NE 10.4 mph - N/A   Partly Cloudy
6:30 AM 75.2 °F - 66.2 °F 73% 30.12 in 6.2 mi NE 9.2 mph - N/A   Partly Cloudy
7:00 AM 76 °F - 67 °F 66% 30.15 in - NNE 11.5 mph - -  
7:00 AM 75.2 °F - 66.2 °F 73% 30.12 in 5.6 mi NNE 11.5 mph - N/A Rain Light Rain Showers
7:30 AM 77.0 °F - 66.2 °F 69% 30.15 in 5.6 mi NNE 10.4 mph - N/A Rain Rain Showers
8:00 AM 80.6 °F 82.7 °F 66.2 °F 61% 30.15 in 6.2 mi NE 16.1 mph - N/A Rain Light Rain Showers
8:30 AM 78.8 °F - 64.4 °F 61% 30.15 in 5.6 mi NNE 15.0 mph - N/A Rain Light Rain Showers
8:45 AM 80.6 °F 82.3 °F 64.4 °F 58% 30.15 in 3.7 mi NE 15.0 mph - N/A Rain Rain Showers
9:00 AM 80 °F - 64 °F 50% 30.16 in 6 mi NNE 16.1 mph - - Rain Light Rain Showers
9:00 AM 80.6 °F 82.3 °F 64.4 °F 58% 30.15 in 3.1 mi NNE 16.1 mph - N/A Rain Rain Showers
9:30 AM 77.0 °F - 66.2 °F 69% 30.15 in 3.1 mi North 18.4 mph - N/A Rain Rain Showers
9:42 AM 77.0 °F - 68.0 °F 74% 30.15 in 3.7 mi North 19.6 mph - N/A Rain Rain Showers
10:00 AM 77 °F - 65 °F 58% 30.17 in - North 17.3 mph - -  
10:00 AM 77.0 °F - 64.4 °F 65% 30.15 in 5.6 mi North 17.3 mph - N/A Rain Light Rain Showers
10:30 AM 77.0 °F - 68.0 °F 74% 30.15 in 6.2 mi North 17.3 mph - N/A Rain Light Rain Showers
11:00 AM 75.2 °F - 64.4 °F 69% 30.15 in 6.2 mi North 17.3 mph - N/A Rain Light Rain Showers
11:30 AM 75.2 °F - 64.4 °F 69% 30.15 in 6.2 mi North 15.0 mph - N/A Rain Light Rain Showers
12:00 PM 76 °F - 65 °F 62% 30.15 in 9 mi NNE 12.7 mph - -   Mostly Cloudy
12:00 PM 77.0 °F - 66.2 °F 69% 30.12 in 6.2 mi NNE 12.7 mph - N/A   Mostly Cloudy
12:30 PM 78.8 °F - 64.4 °F 61% 30.12 in 6.2 mi NNE 17.3 mph - N/A   Mostly Cloudy
1:00 PM 78.8 °F - 64.4 °F 61% 30.12 in 6.2 mi NNE 19.6 mph - N/A   Scattered Clouds
1:30 PM 80.6 °F 81.8 °F 62.6 °F 54% 30.09 in 6.2 mi NNE 19.6 mph - N/A   Partly Cloudy
2:00 PM 78.8 °F - 62.6 °F 57% 30.09 in 6.2 mi NNE 16.1 mph - N/A   Mostly Cloudy
2:30 PM 80.6 °F 82.3 °F 64.4 °F 58% 30.09 in 6.2 mi NNE 16.1 mph - N/A   Scattered Clouds
3:00 PM 80 °F - 61 °F 43% 30.11 in 16 mi NNE 15.0 mph - -   Smoke
3:00 PM 80.6 °F 81.5 °F 60.8 °F 51% 30.09 in 6.2 mi NNE 15.0 mph - N/A   Scattered Clouds
3:30 PM 82.4 °F 82.5 °F 59.0 °F 45% 30.09 in 6.2 mi NNE 12.7 mph - N/A   Scattered Clouds
4:00 PM 79 °F - 62 °F 47% 30.11 in - NNE 13.8 mph - -  
4:00 PM 78.8 °F - 62.6 °F 57% 30.09 in 6.2 mi NNE 13.8 mph - N/A   Mostly Cloudy
4:30 PM 78.8 °F - 64.4 °F 61% 30.09 in 6.2 mi NNE 15.0 mph - N/A   Mostly Cloudy
5:00 PM 77.0 °F - 64.4 °F 65% 30.09 in 6.2 mi NNE 13.8 mph - N/A   Mostly Cloudy
5:30 PM 78.8 °F - 64.4 °F 61% 30.09 in 6.2 mi NE 10.4 mph - N/A   Mostly Cloudy
6:00 PM 77 °F - 64 °F 54% 30.13 in 11 mi NE 12.7 mph - -   Partly Cloudy
6:00 PM 77.0 °F - 64.4 °F 65% 30.12 in 6.2 mi NE 12.7 mph - N/A   Mostly Cloudy
6:30 PM 77.0 °F - 62.6 °F 61% 30.12 in 6.2 mi NE 11.5 mph - N/A   Mostly Cloudy
7:00 PM 76 °F - 62 °F 54% 30.14 in - NE 9.2 mph - -  
7:00 PM 77.0 °F - 62.6 °F 61% 30.12 in 6.2 mi NE 9.2 mph - N/A   Scattered Clouds
7:30 PM 77.0 °F - 62.6 °F 61% 30.15 in 6.2 mi NE 10.4 mph - N/A   Mostly Cloudy
8:00 PM 77.0 °F - 62.6 °F 61% 30.15 in 6.2 mi NE 8.1 mph - N/A   Mostly Cloudy
8:30 PM 75.2 °F - 62.6 °F 65% 30.15 in 6.2 mi NE 10.4 mph - N/A   Mostly Cloudy
9:00 PM 76 °F - 62 °F 53% 30.17 in 16 mi NE 9.2 mph - -   Partly Cloudy
9:00 PM 77.0 °F - 62.6 °F 61% 30.15 in 6.2 mi NE 9.2 mph - N/A   Mostly Cloudy
9:30 PM 75.2 °F - 62.6 °F 65% 30.15 in 6.2 mi NE 10.4 mph - N/A   Mostly Cloudy
10:00 PM 74 °F - 62 °F 58% 30.18 in - NNE 9.2 mph - -  
10:00 PM 75.2 °F - 62.6 °F 65% 30.15 in 6.2 mi NNE 9.2 mph - N/A   Mostly Cloudy
10:30 PM 75.2 °F - 62.6 °F 65% 30.15 in 6.2 mi NE 6.9 mph - N/A   Mostly Cloudy
11:00 PM 75.2 °F - 64.4 °F 69% 30.15 in 6.2 mi NE 9.2 mph - N/A   Scattered Clouds
11:30 PM 75.2 °F - 62.6 °F 65% 30.15 in 6.2 mi NE 11.5 mph - N/A   Scattered Clouds